Weather Roundup
Issued by NWS Springfield, MO

Home | Current Version | Previous Version | Text Only | Print | Product List | Glossary On
Versions: 1 2 3 4 5 6 7 8 9 10 11 12 13 14 15 16 17 18 19 20 21 22 23 24 25 26 27 28 29 30 31 32 33 34 35 36 37 38 39 40 41 42 43 44 45 46 47 48 49 50
000
NZUS99 KSGF 201859
HRRSGF

HOURLY WEATHER
NATIONAL WEATHER SERVICE SPRINGFIELD MO
100 PM CST SAT DEC 20 2014

......SGF CWA......

CITY           SKY/WX    TMP DP  RH WIND       PRES   REMARKS
SPRINGFIELD    CLOUDY    41  36  82 SW7       30.18F
JOPLIN         CLOUDY    44  35  70 SW8       30.20F
WEST PLAINS    CLOUDY    42  36  79 NE3       30.20F
ROLLA          CLOUDY    40  34  79 S6        30.18F
OSAGE BEACH    CLOUDY    43  34  70 SW7       30.19F
BRANSON        CLOUDY    41  39  93 CALM      30.21F FOG

......SURROUNDING SGF CWA......

CITY           SKY/WX    TMP DP  RH WIND       PRES   REMARKS
CHANUTE        MOSUNNY   46  36  68 S12       30.17F
PARSONS        CLOUDY    44  35  70 S7        30.20F
COFFEYVILLE    PTSUNNY   44  35  70 S10       30.20F
EMPORIA        SUNNY     47  39  74 S17       30.12F
SILOAM SPRINGS CLOUDY    43  36  75 SW5       30.21F
HARRISON AR    CLOUDY    42  39  89 SE5       30.20F
NEAR YELLVILLE CLOUDY    43  36  75 CALM      30.22S

......KANSAS AND MISSOURI......

CITY           SKY/WX    TMP DP  RH WIND       PRES   REMARKS
KANSAS CTY INT CLOUDY    43  38  82 SW13      30.11F
DOWNTOWN KC    PTSUNNY   46  37  71 S10       30.13F
COLUMBIA       CLOUDY    41  36  82 S5        30.19F
SEDALIA        CLOUDY    40  35  83 SW9       30.19F WCI  34
ST JOSEPH      CLOUDY    40  35  83 SW8       30.12F WCI  34
ST LOUIS       CLOUDY    42  32  67 SE3       30.23F
SPIRIT OF STL  CLOUDY    42  33  70 SE3       30.22F
KIRKSVILLE     CLOUDY    38  35  89 S7        30.17F WCI  33
WICHITA        PTSUNNY   48  36  63 S14       30.12F
TOPEKA         SUNNY     48  38  68 SW10      30.11F
OLATHE         PTSUNNY   44  37  76 SW13      30.13F

......TENNESSEE......

CITY           SKY/WX    TMP DP  RH WIND       PRES   REMARKS
MEMPHIS        CLOUDY    49  32  52 NE6       30.23F
NASHVILLE      PTSUNNY   46  28  49 VRB3      30.24F

......ARKANSAS.......

CITY           SKY/WX    TMP DP  RH WIND       PRES   REMARKS
FAYETTEVILLE   CLOUDY    42  37  82 CALM      30.20F
FT SMITH       CLOUDY    46  40  79 NE6       30.22F HAZE
LITTLE ROCK    CLOUDY    47  35  63 CALM      30.24F

......OKLAHOMA.......

CITY           SKY/WX    TMP DP  RH WIND       PRES   REMARKS
TULSA          PTSUNNY   45  36  70 S6        30.21F
PONCA CITY     CLOUDY    49  36  61 SW12      30.15F
MCALESTER      CLOUDY    45  41  86 CALM      30.21F
OKLAHOMA CITY  CLOUDY    45  37  73 S13       30.17F

......IOWA............

CITY           SKY/WX    TMP DP  RH WIND       PRES   REMARKS
DES MOINES     CLOUDY    34  31  88 SE7       30.14F FOG     WCI  28
QUAD CITIES    CLOUDY    34  26  72 SE7       30.22F WCI  28

......ILLINOIS........

CITY           SKY/WX    TMP DP  RH WIND       PRES   REMARKS
QUINCY         CLOUDY    36  32  85 S8        30.20F FOG     WCI  30
CHICAGO        CLOUDY    32  23  69 W8        30.24F WCI  25




USA.gov is the U.S. government's official web portal to all federal, state and local government web resources and services.